Location: *
(46.1006°N, 1.8394°E)
Time: 15:53:16
(UTC+00:00)

Cosmos 676 Rocket - Pass Details

Date: 20 September 2019
Orbit: 755 x 784 km, 74.0° (Epoch: 15 October)

Event Time Altitude Azimuth Distance (km) Brightness Sun altitude
Rises 19:31:11 0° 340° (NNW) 3,260 7.9 -17.1°
Reaches altitude 10° 19:33:37 10° 343° (NNW) 2,324 7.0 -17.5°
Maximum altitude 19:38:51 65° 66° (ENE) 843 4.0 -18.4°
Enters shadow 19:41:12 32° 137° (SE) 1,284 4.7 -18.8°
